| time (UTC) | temp C | wind direction | speed KPH | gust KPH | rain 1hr cm | rain 24hr cm | rain mn cm | humidity % | barometer mb |
| 20260504232012 | 16 | 248 | 0.0 | 0.0 | 0.00 | 0.05 | 0.05 | 53 | 1005.2 |
| 20260504231524 | 16 | 248 | 0.0 | 0.0 | 0.00 | 0.05 | 0.05 | 54 | 1005.1 |
| 20260504231007 | 16 | 248 | 0.0 | 0.0 | 0.00 | 0.05 | 0.05 | 51 | 1005.2 |
| 20260504230508 | 16 | 262 | 0.0 | 0.0 | 0.00 | 0.05 | 0.05 | 49 | 1005.1 |
| 20260504230028 | 17 | 266 | 0.0 | 0.0 | 0.00 | 0.05 | 0.05 | 49 | 1005.0 |
| 20260504225511 | 17 | 266 | 0.0 | 3.2 | 0.00 | 0.05 | 0.05 | 48 | 1005.0 |
| 20260504225009 | 17 | 266 | 0.0 | 3.2 | 0.00 | 0.05 | 0.05 | 48 | 1005.0 |
| 20260504224526 | 17 | 295 | 0.0 | 3.2 | 0.00 | 0.05 | 0.05 | 47 | 1004.9 |
| 20260504224008 | 17 | 265 | 0.0 | 4.8 | 0.00 | 0.05 | 0.05 | 47 | 1004.8 |
| 20260504223507 | 17 | 307 | 0.0 | 4.8 | 0.00 | 0.05 | 0.05 | 46 | 1004.8 |
| 20260504223028 | 17 | 217 | 0.0 | 3.2 | 0.00 | 0.05 | 0.05 | 47 | 1004.8 |
| 20260504222507 | 17 | 286 | 0.0 | 3.2 | 0.00 | 0.05 | 0.05 | 46 | 1004.8 |
| 20260504222010 | 17 | 67 | 0.0 | 8.0 | 0.00 | 0.05 | 0.05 | 47 | 1004.8 |
| 20260504221520 | 17 | 92 | 0.0 | 8.0 | 0.00 | 0.05 | 0.05 | 47 | 1004.8 |
| 20260504221008 | 17 | 302 | 0.0 | 3.2 | 0.00 | 0.05 | 0.05 | 46 | 1004.9 |
| 20260504220509 | 17 | 208 | 0.0 | 4.8 | 0.00 | 0.05 | 0.05 | 47 | 1004.8 |
| 20260504220026 | 17 | 185 | 0.0 | 4.8 | 0.00 | 0.05 | 0.05 | 47 | 1004.9 |
| 20260504215507 | 17 | 185 | 0.0 | 3.2 | 0.00 | 0.05 | 0.05 | 46 | 1005.0 |
| 20260504215012 | 17 | 225 | 0.0 | 6.4 | 0.00 | 0.05 | 0.05 | 45 | 1005.0 |
| 20260504214527 | 17 | 312 | 1.6 | 12.9 | 0.00 | 0.05 | 0.05 | 47 | 1005.1 |
| 20260504214008 | 18 | 352 | 3.2 | 12.9 | 0.00 | 0.05 | 0.05 | 45 | 1005.1 |
| 20260504213512 | 18 | 242 | 3.2 | 11.3 | 0.00 | 0.05 | 0.05 | 44 | 1005.0 |
| 20260504213042 | 18 | 221 | 1.6 | 12.9 | 0.00 | 0.05 | 0.05 | 44 | 1005.0 |
| 20260504212506 | 18 | 317 | 0.0 | 16.1 | 0.00 | 0.05 | 0.05 | 44 | 1005.0 |
| 20260504212008 | 18 | 248 | 4.8 | 16.1 | 0.00 | 0.05 | 0.05 | 44 | 1005.0 |
| 20260504211528 | 18 | 236 | 3.2 | 11.3 | 0.00 | 0.05 | 0.05 | 43 | 1004.9 |
| 20260504211008 | 18 | 241 | 3.2 | 11.3 | 0.00 | 0.05 | 0.05 | 44 | 1004.8 |
| 20260504210504 | 18 | 216 | 3.2 | 12.9 | 0.03 | 0.05 | 0.05 | 44 | 1004.9 |
| 20260504210008 | 18 | 117 | 3.2 | 14.5 | 0.03 | 0.05 | 0.05 | 46 | 1004.8 |
| 20260504205504 | 17 | 282 | 3.2 | 19.3 | 0.03 | 0.05 | 0.05 | 48 | 1004.8 |
| 20260504205005 | 17 | 40 | 3.2 | 19.3 | 0.03 | 0.05 | 0.05 | 47 | 1004.9 |
| 20260504204519 | 17 | 190 | 3.2 | 17.7 | 0.03 | 0.05 | 0.05 | 49 | 1004.8 |
| 20260504204007 | 17 | 145 | 4.8 | 12.9 | 0.03 | 0.05 | 0.05 | 49 | 1004.8 |
| 20260504203505 | 17 | 210 | 3.2 | 11.3 | 0.03 | 0.05 | 0.05 | 49 | 1004.8 |
| 20260504203020 | 17 | 255 | 3.2 | 9.7 | 0.03 | 0.05 | 0.05 | 50 | 1004.8 |
| 20260504202506 | 17 | 306 | 1.6 | 9.7 | 0.03 | 0.05 | 0.05 | 49 | 1004.8 |
| 20260504202007 | 17 | 254 | 3.2 | 12.9 | 0.03 | 0.05 | 0.05 | 50 | 1004.7 |
| 20260504201515 | 17 | 352 | 3.2 | 17.7 | 0.03 | 0.05 | 0.05 | 49 | 1004.7 |
| 20260504201006 | 17 | 215 | 8.0 | 19.3 | 0.03 | 0.05 | 0.05 | 48 | 1004.7 |
| 20260504200510 | 17 | 229 | 6.4 | 19.3 | 0.00 | 0.03 | 0.03 | 49 | 1004.7 |
| 20260504200024 | 17 | 293 | 1.6 | 11.3 | 0.00 | 0.03 | 0.03 | 53 | 1004.6 |
| 20260504195503 | 17 | 335 | 3.2 | 9.7 | 0.00 | 0.03 | 0.03 | 54 | 1004.8 |
| 20260504195004 | 16 | 244 | 3.2 | 16.1 | 0.00 | 0.03 | 0.03 | 55 | 1004.9 |
| 20260504194508 | 16 | 132 | 4.8 | 17.7 | 0.00 | 0.03 | 0.03 | 55 | 1004.9 |
| 20260504194004 | 16 | 259 | 6.4 | 19.3 | 0.00 | 0.03 | 0.03 | 57 | 1004.8 |
| 20260504193505 | 16 | 244 | 6.4 | 19.3 | 0.00 | 0.03 | 0.03 | 56 | 1004.9 |
| 20260504193008 | 16 | 197 | 4.8 | 16.1 | 0.00 | 0.03 | 0.03 | 59 | 1004.9 |
| 20260504192505 | 15 | 246 | 3.2 | 16.1 | 0.00 | 0.03 | 0.03 | 60 | 1005.0 |
| 20260504192007 | 15 | 201 | 0.0 | 11.3 | 0.00 | 0.03 | 0.03 | 62 | 1005.0 |
| 20260504191516 | 14 | 252 | 1.6 | 11.3 | 0.00 | 0.03 | 0.03 | 65 | 1005.2 |
| 20260504191007 | 14 | 126 | 4.8 | 11.3 | 0.00 | 0.03 | 0.03 | 65 | 1005.1 |
| 20260504190507 | 13 | 341 | 3.2 | 9.7 | 0.00 | 0.03 | 0.03 | 67 | 1005.2 |
| 20260504190023 | 13 | 303 | 3.2 | 9.7 | 0.00 | 0.03 | 0.03 | 69 | 1005.3 |
| 20260504185508 | 13 | 202 | 1.6 | 6.4 | 0.00 | 0.03 | 0.03 | 72 | 1005.4 |
| 20260504185009 | 13 | 248 | 1.6 | 4.8 | 0.00 | 0.03 | 0.03 | 72 | 1005.4 |
| 20260504184524 | 12 | 308 | 0.0 | 4.8 | 0.00 | 0.03 | 0.03 | 76 | 1005.4 |
| 20260504184004 | 12 | 230 | 0.0 | 3.2 | 0.00 | 0.03 | 0.03 | 74 | 1005.4 |
| 20260504183507 | 12 | 265 | 0.0 | 3.2 | 0.00 | 0.03 | 0.03 | 75 | 1005.4 |
| 20260504183007 | 12 | 317 | 0.0 | 3.2 | 0.03 | 0.03 | 0.03 | 77 | 1005.4 |
| 20260504182504 | 12 | 328 | 0.0 | 1.6 | 0.03 | 0.03 | 0.03 | 80 | 1005.4 |
| 20260504182005 | 11 | 328 | 0.0 | 1.6 | 0.03 | 0.03 | 0.03 | 79 | 1005.4 |
| 20260504181515 | 11 | 331 | 0.0 | 0.0 | 0.03 | 0.03 | 0.03 | 80 | 1005.5 |
| 20260504181008 | 11 | 328 | 0.0 | 0.0 | 0.03 | 0.03 | 0.03 | 80 | 1005.5 |
| 20260504180506 | 11 | 328 | 0.0 | 1.6 | 0.03 | 0.03 | 0.03 | 81 | 1005.5 |
| 20260504180019 | 11 | 318 | 0.0 | 3.2 | 0.03 | 0.03 | 0.03 | 81 | 1005.7 |
| 20260504175504 | 11 | 318 | 0.0 | 3.2 | 0.03 | 0.03 | 0.03 | 81 | 1005.7 |
| 20260504175005 | 11 | 55 | 0.0 | 3.2 | 0.03 | 0.03 | 0.03 | 81 | 1005.8 |
| 20260504174520 | 11 | 352 | 0.0 | 6.4 | 0.03 | 0.03 | 0.03 | 80 | 1005.9 |
| 20260504174009 | 12 | 53 | 3.2 | 6.4 | 0.03 | 0.03 | 0.03 | 76 | 1005.9 |
| 20260504173508 | 12 | 11 | 0.0 | 16.1 | 0.03 | 0.03 | 0.03 | 74 | 1005.8 |
| 20260504173007 | 13 | 343 | 4.8 | 14.5 | 0.00 | 0.00 | 0.00 | 68 | 1005.6 |
| 20260504172504 | 13 | 350 | 3.2 | 14.5 | 0.00 | 0.00 | 0.00 | 63 | 1005.4 |
| 20260504172002 | 15 | 255 | 3.2 | 14.5 | 0.00 | 0.00 | 0.00 | 59 | 1005.3 |
| 20260504171510 | 15 | 276 | 4.8 | 8.0 | 0.00 | 0.00 | 0.00 | 54 | 1005.0 |
| 20260504171006 | 15 | 336 | 1.6 | 12.9 | 0.00 | 0.00 | 0.00 | 52 | 1004.8 |
| 20260504170507 | 15 | 217 | 3.2 | 12.9 | 0.00 | 0.00 | 0.00 | 50 | 1004.6 |
| 20260504151013 | 13 | 246 | 6.4 | 20.9 | 0.00 | 0.13 | 0.00 | 59 | 1005.5 |
| 20260504150504 | 13 | 247 | 8.0 | 20.9 | 0.00 | 0.15 | 0.00 | 58 | 1005.7 |
| 20260504141009 | 12 | 181 | 6.4 | 17.7 | 0.00 | 0.23 | 0.00 | 56 | 1006.5 |
| 20260504140510 | 11 | 199 | 1.6 | 17.7 | 0.00 | 0.23 | 0.00 | 57 | 1006.6 |
| 20260504130507 | 10 | 311 | 1.6 | 16.1 | 0.00 | 0.33 | 0.00 | 58 | 1007.3 |
| 20260504110508 | 1 | 221 | 0.0 | 0.0 | 0.00 | 0.43 | 0.00 | 88 | 1007.6 |
| 20260504100507 | -1 | 219 | 0.0 | 0.0 | 0.00 | 0.48 | 0.00 | 89 | 1007.4 |
| 20260504082004 | -1 | 219 | 0.0 | 0.0 | 0.00 | 0.58 | 0.00 | 89 | 1007.0 |
| 20260504081508 | -1 | 229 | 0.0 | 0.0 | 0.00 | 0.58 | 0.00 | 89 | 1007.1 |
| 20260504081003 | -1 | 229 | 0.0 | 0.0 | 0.00 | 0.58 | 0.00 | 88 | 1007.1 |
| 20260504080502 | -1 | 229 | 0.0 | 0.0 | 0.00 | 0.58 | 0.00 | 88 | 1007.1 |
| 20260504050508 | 3 | 254 | 0.0 | 4.8 | 0.00 | 0.58 | 0.00 | 73 | 1006.6 |
| 20260504045509 | 3 | 178 | 0.0 | 3.2 | 0.00 | 0.58 | 0.00 | 72 | 1006.6 |
| 20260504045004 | 3 | 190 | 0.0 | 8.0 | 0.00 | 0.58 | 0.00 | 73 | 1006.6 |
| 20260504044514 | 2 | 242 | 1.6 | 8.0 | 0.00 | 0.58 | 0.00 | 73 | 1006.5 |
| 20260504044005 | 2 | 229 | 0.0 | 3.2 | 0.00 | 0.58 | 0.00 | 73 | 1006.6 |
| 20260504043504 | 2 | 216 | 0.0 | 3.2 | 0.00 | 0.58 | 0.00 | 73 | 1006.6 |
| 20260504043022 | 2 | 214 | 0.0 | 3.2 | 0.00 | 0.58 | 0.00 | 74 | 1006.6 |
| 20260504042506 | 2 | 224 | 0.0 | 3.2 | 0.00 | 0.58 | 0.00 | 73 | 1006.6 |
| 20260504042008 | 2 | 232 | 0.0 | 3.2 | 0.00 | 0.58 | 0.00 | 74 | 1006.6 |
| 20260504041519 | 2 | 217 | 0.0 | 3.2 | 0.00 | 0.58 | 0.00 | 74 | 1006.6 |
| 20260504041007 | 3 | 280 | 0.0 | 3.2 | 0.00 | 0.58 | 0.00 | 73 | 1006.5 |
| 20260504040508 | 3 | 280 | 0.0 | 0.0 | 0.00 | 0.58 | 0.00 | 71 | 1006.5 |
| 20260504040029 | 3 | 280 | 0.0 | 0.0 | 0.00 | 0.58 | 0.00 | 70 | 1006.4 |
| 20260504035508 | 3 | 279 | 0.0 | 0.0 | 0.00 | 0.58 | 0.58 | 70 | 1006.3 |
| 20260504035009 | 3 | 279 | 0.0 | 3.2 | 0.00 | 0.58 | 0.58 | 69 | 1006.3 |
| 20260504034526 | 3 | 277 | 0.0 | 3.2 | 0.00 | 0.58 | 0.58 | 69 | 1006.3 |
| 20260504034008 | 3 | 279 | 0.0 | 3.2 | 0.00 | 0.58 | 0.58 | 69 | 1006.4 |
| 20260504033504 | 3 | 244 | 0.0 | 3.2 | 0.00 | 0.58 | 0.58 | 68 | 1006.3 |
| 20260504033013 | 3 | 300 | 0.0 | 3.2 | 0.00 | 0.58 | 0.58 | 69 | 1006.3 |
| 20260504032504 | 3 | 319 | 0.0 | 3.2 | 0.00 | 0.58 | 0.58 | 67 | 1006.3 |
| 20260504032006 | 4 | 319 | 0.0 | 3.2 | 0.00 | 0.58 | 0.58 | 67 | 1006.3 |
| 20260504031518 | 4 | 286 | 0.0 | 3.2 | 0.00 | 0.58 | 0.58 | 66 | 1006.3 |
| 20260504031008 | 4 | 198 | 0.0 | 3.2 | 0.00 | 0.58 | 0.58 | 66 | 1006.2 |
| 20260504030508 | 4 | 232 | 0.0 | 3.2 | 0.00 | 0.58 | 0.58 | 65 | 1006.2 |
| 20260504030024 | 4 | 242 | 0.0 | 3.2 | 0.00 | 0.58 | 0.58 | 65 | 1006.1 |
| 20260504025507 | 5 | 229 | 0.0 | 3.2 | 0.00 | 0.58 | 0.58 | 64 | 1006.0 |
| 20260504025007 | 5 | 291 | 0.0 | 3.2 | 0.00 | 0.58 | 0.58 | 63 | 1005.9 |
| 20260504024523 | 5 | 266 | 0.0 | 4.8 | 0.00 | 0.58 | 0.58 | 64 | 1005.9 |
| 20260504024008 | 5 | 286 | 0.0 | 8.0 | 0.00 | 0.58 | 0.58 | 64 | 1005.9 |
| 20260504023509 | 5 | 321 | 1.6 | 8.0 | 0.00 | 0.58 | 0.58 | 64 | 1005.9 |
| 20260504023025 | 5 | 337 | 0.0 | 3.2 | 0.00 | 0.58 | 0.58 | 62 | 1005.9 |
| 20260504022511 | 5 | 317 | 0.0 | 4.8 | 0.00 | 0.58 | 0.58 | 61 | 1005.8 |
| 20260504022005 | 5 | 246 | 1.6 | 4.8 | 0.00 | 0.58 | 0.58 | 61 | 1005.9 |
| 20260504021513 | 5 | 192 | 0.0 | 3.2 | 0.00 | 0.58 | 0.58 | 61 | 1005.8 |
| 20260504021005 | 5 | 279 | 0.0 | 4.8 | 0.00 | 0.58 | 0.58 | 61 | 1005.8 |
| 20260504020505 | 5 | 309 | 0.0 | 4.8 | 0.00 | 0.58 | 0.58 | 62 | 1005.7 |
| 20260504020018 | 5 | 26 | 0.0 | 3.2 | 0.00 | 0.58 | 0.58 | 60 | 1005.7 |
| 20260504015509 | 5 | 348 | 0.0 | 4.8 | 0.00 | 0.58 | 0.58 | 59 | 1005.7 |
| 20260504015008 | 6 | 9 | 0.0 | 4.8 | 0.00 | 0.58 | 0.58 | 59 | 1005.7 |
| 20260504014522 | 6 | 265 | 0.0 | 3.2 | 0.00 | 0.58 | 0.58 | 58 | 1005.6 |
| 20260504014009 | 6 | 142 | 0.0 | 3.2 | 0.00 | 0.58 | 0.58 | 58 | 1005.5 |
| 20260504013508 | 6 | 107 | 0.0 | 9.7 | 0.00 | 0.58 | 0.58 | 58 | 1005.5 |
| 20260504013031 | 6 | 199 | 0.0 | 9.7 | 0.00 | 0.58 | 0.58 | 58 | 1005.4 |
| 20260504012516 | 6 | 341 | 0.0 | 9.7 | 0.00 | 0.58 | 0.58 | 58 | 1005.4 |
| 20260504012010 | 6 | 24 | 0.0 | 9.7 | 0.00 | 0.58 | 0.58 | 59 | 1005.3 |
| 20260504011527 | 6 | 351 | 0.0 | 9.7 | 0.00 | 0.58 | 0.58 | 58 | 1005.2 |
| 20260504011012 | 6 | 309 | 0.0 | 4.8 | 0.00 | 0.58 | 0.58 | 56 | 1005.1 |
| 20260504010507 | 6 | 77 | 0.0 | 3.2 | 0.00 | 0.58 | 0.58 | 56 | 1005.1 |
| 20260504010015 | 6 | 27 | 0.0 | 3.2 | 0.00 | 0.58 | 0.58 | 57 | 1005.0 |
| 20260504005504 | 6 | 9 | 0.0 | 9.7 | 0.00 | 0.58 | 0.58 | 58 | 1005.0 |
| 20260504005005 | 6 | 259 | 0.0 | 9.7 | 0.00 | 0.58 | 0.58 | 59 | 1004.8 |
| 20260504004520 | 6 | 52 | 0.0 | 6.4 | 0.00 | 0.58 | 0.58 | 57 | 1004.8 |
| 20260504004009 | 6 | 341 | 0.0 | 6.4 | 0.00 | 0.58 | 0.58 | 56 | 1004.7 |
| 20260504003509 | 7 | 153 | 0.0 | 3.2 | 0.00 | 0.58 | 0.58 | 55 | 1004.6 |
| 20260504003023 | 7 | 261 | 0.0 | 3.2 | 0.00 | 0.58 | 0.58 | 54 | 1004.6 |
| 20260504002508 | 7 | 5 | 0.0 | 3.2 | 0.00 | 0.58 | 0.58 | 53 | 1004.5 |
| 20260504002010 | 7 | 337 | 1.6 | 3.2 | 0.00 | 0.58 | 0.58 | 54 | 1004.5 |
| 20260504001528 | 7 | 10 | 0.0 | 4.8 | 0.00 | 0.58 | 0.58 | 52 | 1004.4 |
| 20260504001011 | 7 | 40 | 1.6 | 8.0 | 0.00 | 0.58 | 0.58 | 52 | 1004.4 |
| 20260504000514 | 7 | 352 | 1.6 | 8.0 | 0.00 | 0.58 | 0.58 | 51 | 1004.3 |
| 20260504000027 | 7 | 111 | 1.6 | 8.0 | 0.00 | 0.58 | 0.58 | 50 | 1004.2 |
| 20260503235507 | 8 | 360 | 1.6 | 6.4 | 0.00 | 0.58 | 0.58 | 51 | 1004.1 |
| 20260503235006 | 8 | 14 | 1.6 | 12.9 | 0.00 | 0.58 | 0.58 | 49 | 1004.0 |
| 20260503234514 | 8 | 78 | 3.2 | 12.9 | 0.00 | 0.58 | 0.58 | 50 | 1003.8 |
| 20260503234008 | 8 | 329 | 3.2 | 11.3 | 0.00 | 0.58 | 0.58 | 51 | 1003.8 |
| 20260503233508 | 8 | 5 | 1.6 | 11.3 | 0.00 | 0.58 | 0.58 | 50 | 1003.7 |
| 20260503233021 | 8 | 25 | 4.8 | 11.3 | 0.00 | 0.58 | 0.58 | 49 | 1003.6 |
| 20260503232509 | 8 | 333 | 3.2 | 9.7 | 0.00 | 0.58 | 0.58 | 48 | 1003.5 |